This demonstration page uses our WeatherBlox Daily Observations layout. Learn more.

40.92945, -100.16068

Hourly Observations for February 19, 2020

Temp ( °F °C ) Dew Point ( °F °C ) Humidity (%) Winds ( mph kmh ) Pressure ( in mb ) Visibility ( mi km ) Precip ( " mm )
12:15 am 00:15 Cloudy 23 -5 22 -5.7 95 95 ENE 10 17 30.55 1035 7 11.26538 0 0
12:35 am 00:35 Cloudy 22 -5.6 20 -6.5 93 93 NE 13 20 30.56 1035 7 11.26538 0 0
12:55 am 00:55 Cloudy 22 -5.7 20 -6.6 93 93 NE 9 15 30.57 1035 10 16.0934 0 0
1:10 am 01:10 Cloudy 21 -6 20 -6.9 93 93 ENE 9 15 30.57 1035 10 16.0934 0 0
1:35 am 01:35 Cloudy 21 -6 19 -7 93 93 ENE 9 15 30.58 1036 10 16.0934 0 0
1:55 am 01:55 Cloudy 21 -6 20 -6.8 94 94 ENE 9 15 30.58 1036 10 16.0934 0 0
2:15 am 02:15 Cloudy 21 -5.9 20 -6.7 94 94 E 12 19 30.59 1036 10 16.0934 0 0
2:35 am 02:35 Cloudy 22 -5.8 20 -6.7 93 93 ENE 10 17 30.59 1036 10 16.0934 0 0
2:55 am 02:55 Cloudy 21 -6 20 -6.9 93 93 ENE 12 19 30.58 1036 10 16.0934 0 0
3:15 am 03:15 Cloudy 21 -6 19 -7 93 93 ENE 10 17 30.57 1035 10 16.0934 0 0
3:35 am 03:35 Cloudy 21 -6.1 19 -7 93 93 ENE 12 19 30.57 1035 7 11.26538 0 0
3:55 am 03:55 Cloudy 21 -6.1 19 -7 93 93 ENE 12 19 30.57 1035 7 11.26538 0 0
4:15 am 04:15 Cloudy 21 -6.1 19 -7 93 93 ENE 8 13 30.57 1035 7 11.26538 0 0
4:35 am 04:35 Cloudy 21 -6.1 19 -7 93 93 NE 9 15 30.57 1035 7 11.26538 0 0
4:55 am 04:55 Cloudy 21 -6 19 -7 93 93 ENE 10 17 30.57 1035 7 11.26538 0 0
5:15 am 05:15 Cloudy 21 -6 19 -7 93 93 ENE 12 19 30.58 1036 7 11.26538 0 0
5:35 am 05:35 Cloudy 21 -6.1 19 -7.1 93 93 ENE 12 19 30.59 1036 10 16.0934 0 0
5:55 am 05:55 Cloudy 21 -6.2 19 -7.2 93 93 E 12 19 30.59 1036 10 16.0934 0 0
6:15 am 06:15 Cloudy 20 -6.4 19 -7.2 94 94 ENE 13 20 30.59 1036 7 11.26538 0 0
6:35 am 06:35 Cloudy 20 -6.5 19 -7.3 94 94 ENE 14 22 30.6 1036 7 11.26538 0 0
6:55 am 06:55 Cloudy 20 -6.6 19 -7.5 93 93 ENE 14 22 30.6 1036 7 11.26538 0 0
7:15 am 07:15 Cloudy 20 -6.8 18 -7.7 93 93 ENE 14 22 30.61 1037 10 16.0934 0 0
7:35 am 07:35 Cloudy 19 -7 18 -7.7 95 95 ENE 15 24 30.61 1037 7 11.26538 0 0
7:55 am 07:55 Cloudy with Mist and Fog 19 -7.2 18 -7.8 96 96 E 14 22 30.61 1037 5 8.0467 0 0
8:15 am 08:15 Cloudy 19 -7.5 17 -8.3 94 94 E 14 22 30.64 1037 7 11.26538 0 0
8:35 am 08:35 Cloudy 19 -7.3 17 -8.4 92 92 E 13 20 30.63 1037 10 16.0934 0 0
8:55 am 08:55 Cloudy 19 -7.3 17 -8.3 93 93 ENE 13 20 30.64 1038 10 16.0934 0 0
9:15 am 09:15 Cloudy 19 -7.5 17 -8.5 93 93 ENE 14 22 30.66 1038 10 16.0934 0 0
9:35 am 09:35 Cloudy 19 -7.2 17 -8.3 92 92 ENE 14 22 30.65 1038 10 16.0934 0 0
9:55 am 09:55 Cloudy with Light Snow 20 -6.8 17 -8.3 89 89 ENE 15 24 30.65 1038 10 16.0934 0 0
10:15 am 10:15 Cloudy with Light Snow 19 -7 17 -8.2 91 91 E 13 20 30.66 1038 7 11.26538 0 0
10:35 am 10:35 Cloudy with Light Snow 19 -7 17 -8.2 91 91 E 14 22 30.66 1038 7 11.26538 0 0
10:55 am 10:55 Cloudy with Light Snow 20 -6.6 18 -7.9 91 91 ENE 13 20 30.67 1039 5 8.0467 0 0
11:15 am 11:15 Cloudy with Light Snow 20 -6.5 18 -8 89 89 ENE 15 24 30.67 1038 4 6.43736 0 0
11:35 am 11:35 Cloudy with Light Snow 21 -6.3 17 -8.1 87 87 ENE 13 20 30.67 1039 2 3.21868 0 0
11:55 am 11:55 Cloudy with Light Snow 21 -6.2 18 -8 87 87 NE 14 22 30.66 1038 3 4.82802 0 0
12:15 pm 12:15 Cloudy with Light Snow 21 -6.1 18 -7.9 87 87 NE 13 20 30.66 1038 2 3.21868 0 0
12:35 pm 12:35 Cloudy with Light Snow 22 -5.8 18 -7.6 87 87 ENE 14 22 30.66 1038 4 6.43736 0 0
12:55 pm 12:55 Cloudy with Light Snow 22 -5.8 17 -8.1 84 84 NE 16 26 30.65 1038 7 11.26538 0 0
1:15 pm 13:15 Cloudy with Light Snow 21 -6 17 -8.2 85 85 NE 15 24 30.64 1038 5 8.0467 0 0
1:35 pm 13:35 Cloudy 21 -6.2 17 -8.6 83 83 NE 15 24 30.64 1038 10 16.0934 0 0
1:55 pm 13:55 Cloudy 20 -6.4 16 -9 82 82 NE 16 26 30.64 1038 10 16.0934 0 0
2:15 pm 14:15 Cloudy 20 -6.5 16 -9 83 83 NE 13 20 30.66 1038 7 11.26538 0 0
2:35 pm 14:35 Cloudy with Light Snow 20 -6.5 17 -8.5 86 86 NE 14 22 30.66 1038 2.5 4.02335 0 0
2:55 pm 14:55 Cloudy with Light Snow 20 -6.9 16 -9.1 85 85 NE 15 24 30.66 1038 5 8.0467 0 0
3:15 pm 15:15 Cloudy with Light Snow 20 -6.8 16 -9.1 84 84 NE 16 26 30.66 1038 2.5 4.02335 0 0
3:35 pm 15:35 Cloudy with Light Snow 20 -6.9 16 -8.9 86 86 NE 16 26 30.65 1038 4 6.43736 0 0
3:55 pm 15:55 Cloudy with Light Snow 19 -7.2 15 -9.7 83 83 NE 16 26 30.66 1038 10 16.0934 0 0
4:15 pm 16:15 Windy with Snow Likely 18 -7.6 14 -10.1 82 82 NE 20 31 30.68 1039 10 16.0934 0 0
4:35 pm 16:35 Cloudy with Light Snow 18 -8 13 -10.4 83 83 NE 15 24 30.68 1039 7 11.26538 0 0
4:55 pm 16:55 Cloudy with Light Snow 17 -8.3 13 -10.5 84 84 NNE 16 26 30.7 1039 7 11.26538 0 0
5:15 pm 17:15 Cloudy with Light Snow 16 -9 11 -11.5 82 82 NE 16 26 30.71 1040 1.75 2.816345 0 0
5:35 pm 17:35 Cloudy with Light Snow 16 -9.1 11 -11.5 83 83 NE 12 19 30.72 1040 7 11.26538 0 0
5:55 pm 17:55 Cloudy with Light Snow 15 -9.5 11 -11.7 84 84 NE 13 20 30.73 1041 1.5 2.41401 0 0
6:15 pm 18:15 Cloudy with Light Snow 15 -9.6 11 -11.6 86 86 NE 14 22 30.75 1041 5 8.0467 0 0
6:35 pm 18:35 Cloudy with Light Snow 15 -9.7 11 -11.5 87 87 NNE 10 17 30.75 1041 5 8.0467 0 0
6:55 pm 18:55 Cloudy with Light Snow 14 -9.9 11 -11.6 88 88 NNE 13 20 30.76 1042 3 4.82802 0 0
7:15 pm 19:15 Cloudy with Light Snow 14 -10 11 -11.7 88 88 NNE 12 19 30.77 1042 5 8.0467 0 0
7:35 pm 19:35 Cloudy 14 -10.1 10 -12.1 85 85 NNE 13 20 30.78 1042 7 11.26538 0 0
7:55 pm 19:55 Cloudy 13 -10.5 9 -12.7 84 84 NNE 13 20 30.79 1043 10 16.0934 0 0
8:15 pm 20:15 Partly Cloudy 13 -10.8 9 -13 84 84 NNE 10 17 30.79 1043 10 16.0934 0 0
8:35 pm 20:35 Mostly Cloudy 13 -10.8 9 -13 84 84 NNE 8 13 30.8 1043 10 16.0934 0 0
8:55 pm 20:55 Cloudy 13 -10.6 9 -12.6 85 85 N 8 13 30.81 1043 10 16.0934 0 0
9:15 pm 21:15 Mostly Cloudy 13 -10.6 9 -12.9 83 83 NNE 9 15 30.82 1044 10 16.0934 0 0
9:35 pm 21:35 Mostly Cloudy 13 -10.6 9 -12.8 84 84 NNE 7 11 30.82 1044 10 16.0934 0 0
9:55 pm 21:55 Partly Cloudy 12 -11 8 -13.1 85 85 N 7 11 30.84 1044 10 16.0934 0 0
10:15 pm 22:15 Partly Cloudy 11 -11.5 8 -13.5 85 85 N 6 9 30.85 1045 10 16.0934 0 0
10:35 pm 22:35 Mostly Cloudy 11 -11.7 7 -13.7 85 85 NNE 8 13 30.86 1045 10 16.0934 0 0
10:55 pm 22:55 Partly Cloudy 9 -12.9 6 -14.7 87 87 N 6 9 30.89 1046 10 16.0934 0 0
11:15 pm 23:15 Clear 8 -13.5 5 -15.1 88 88 N 7 11 30.89 1046 10 16.0934 0 0
11:35 pm 23:35 Clear 8 -13.3 5 -15 87 87 N 8 13 30.89 1046 10 16.0934 0 0
11:55 pm 23:55 Clear 9 -13 6 -14.7 87 87 N 6 9 30.9 1046 10 16.0934 0 0

Powered by AerisWeather